Terminal Aerodrome Forecast
Issued by NWS

Home | Current Version | Previous Version | Text Only | Print | Product List | Glossary On
Versions: 1 2 3 4 5 6 7 8 9 10 11 12 13 14 15 16
000
FTUS45 KRIW 261730
TAFLND
TAF
KLND 261730Z 2618/2718 VRB05KT P6SM SCT090
     FM262000 VRB04KT P6SM VCTS SCT035CB BKN070
     FM270300 VRB06KT P6SM VCSH SCT040 BKN060
     FM270800 VRB05KT P6SM SCT090=

USA.gov is the U.S. government's official web portal to all federal, state and local government web resources and services.